Location: Newark
(50.0306°N, 2.3272°E)
Time: 07:47:39
(UTC+00:00)

Transit 2A Rocket - All Passes

Search period start: 06 December 2019 00:00
Search period end: 16 December 2019 00:00
Orbit: 594 x 909 km, 66.7° (Epoch: 05 December)

Date Brightness Start Highest point End Pass type
(mag) Time Alt. Az. Time Alt. Az. Time Alt. Az.
06 Dec - 01:02:19 10° NNW 01:06:31 44° NE 01:10:56 10° ESE night (unlit)
06 Dec - 02:45:04 10° NW 02:48:55 29° WSW 02:52:58 10° S night (unlit)
06 Dec - 17:23:36 10° SSW 17:28:07 67° ESE 17:32:27 10° NE visible
06 Dec - 19:07:24 10° W 19:11:01 24° NW 19:14:34 10° NNE visible
06 Dec - 22:38:44 10° N 22:39:51 11° NNE 22:40:59 10° NNE night (unlit)
07 Dec - 00:19:57 10° NNW 00:23:49 30° NE 00:27:50 10° ESE night (unlit)
07 Dec - 02:02:15 10° NW 02:06:31 49° WSW 02:11:03 10° SSE night (unlit)
07 Dec - 16:41:28 10° S 16:45:41 38° ESE 16:49:44 10° NE visible
07 Dec - 18:24:10 10° WSW 18:28:15 34° NW 18:32:14 10° NNE visible
07 Dec - 20:10:33 10° NW 20:12:05 12° NNW 20:13:37 10° N visible
07 Dec - 23:37:38 10° NNW 23:41:01 21° NE 23:44:28 10° E night (unlit)
08 Dec - 01:19:38 10° NW 01:24:03 83° WSW 01:28:44 10° SSE night (unlit)
08 Dec - 03:04:06 10° W 03:05:56 12° WSW 03:07:49 10° SW night (unlit)
08 Dec - 15:59:46 10° SSE 16:03:20 23° ESE 16:06:47 10° ENE daylight
08 Dec - 17:41:10 10° SW 17:45:35 53° NW 17:49:51 10° NNE visible
08 Dec - 19:26:36 10° WNW 19:29:05 15° NNW 19:31:32 10° N visible
08 Dec - 22:55:24 10° N 22:58:06 16° NNE 23:00:51 10° ENE night (unlit)
09 Dec - 00:37:09 10° NNW 00:41:30 61° NE 00:46:06 10° SE night (unlit)
09 Dec - 02:20:19 10° WNW 02:23:42 21° WSW 02:27:13 10° SSW night (unlit)
09 Dec - 15:18:54 10° SE 15:21:05 13° ESE 15:23:13 10° E daylight
09 Dec - 16:58:28 10° SW 17:03:00 88° WNW 17:07:21 10° NE visible
09 Dec - 18:42:57 10° W 18:46:08 19° NNW 18:49:18 10° NNE visible
09 Dec - 22:13:15 10° N 22:15:07 12° NNE 22:17:00 10° NE night (unlit)
09 Dec - 23:54:43 10° NNW 23:58:51 38° NE 00:03:10 10° ESE night (unlit)
10 Dec - 01:37:18 10° NW 01:41:22 35° WSW 01:45:38 10° S night (unlit)
10 Dec - 16:16:05 10° SSW 16:20:31 55° ESE 16:24:46 10° NE visible
10 Dec - 17:59:31 10° W 18:03:18 27° NW 18:07:00 10° NNE visible
10 Dec - 19:46:45 10° NNW 19:47:21 10° NNW 19:47:58 10° N visible
10 Dec - 21:31:27 10° N 21:32:02 10° NNE 21:32:39 10° NNE night (unlit)
10 Dec - 23:12:23 10° NNW 23:16:06 26° NE 23:19:59 10° E night (unlit)
11 Dec - 00:54:34 10° NW 00:58:56 59° WSW 01:03:35 10° SSE night (unlit)
11 Dec - 15:34:06 10° S 15:38:07 32° ESE 15:41:59 10° NE daylight
11 Dec - 17:16:22 10° WSW 17:20:33 39° NW 17:24:39 10° NNE visible
11 Dec - 19:02:25 10° NW 19:04:17 12° NNW 19:06:10 10° N visible
11 Dec - 22:30:05 10° NNW 22:33:16 19° NNE 22:36:32 10° ENE night (unlit)
12 Dec - 00:12:00 10° NW 00:16:26 83° NE 00:21:09 10° SE night (unlit)
12 Dec - 01:55:50 10° WNW 01:58:26 15° WSW 02:01:06 10° SW night (unlit)
12 Dec - 14:52:38 10° SSE 14:55:48 19° ESE 14:58:54 10° ENE daylight
12 Dec - 16:33:29 10° SW 16:37:55 63° NW 16:42:14 10° NNE visible
12 Dec - 18:18:35 10° WNW 18:21:18 16° NNW 18:24:00 10° N visible
12 Dec - 21:47:51 10° N 21:50:20 15° NNE 21:52:50 10° ENE night (unlit)
12 Dec - 23:29:31 10° NNW 23:33:51 51° NE 23:38:24 10° SE night (unlit)
13 Dec - 01:12:28 10° WNW 01:16:09 25° WSW 01:20:01 10° SSW night (unlit)
13 Dec - 14:12:30 10° ESE 14:13:35 11° ESE 14:14:40 10° E daylight
13 Dec - 15:50:53 10° SSW 15:55:22 78° SE 15:59:43 10° NE daylight
13 Dec - 17:35:00 10° W 17:38:24 21° NW 17:41:45 10° NNE visible
13 Dec - 21:05:45 10° N 21:07:19 12° NNE 21:08:52 10° NE night (unlit)
13 Dec - 22:47:08 10° NNW 22:51:10 34° NE 22:55:23 10° ESE night (unlit)
14 Dec - 00:29:34 10° NW 00:33:47 42° WSW 00:38:15 10° S night (unlit)
14 Dec - 15:08:38 10° SSW 15:12:55 45° ESE 15:17:04 10° NE daylight
14 Dec - 16:51:40 10° WSW 16:55:35 30° NW 16:59:27 10° NNE visible
14 Dec - 18:38:23 10° NNW 18:39:33 11° NNW 18:40:42 10° N visible
14 Dec - 22:04:48 10° NNW 22:08:23 24° NE 22:12:06 10° E night (unlit)
14 Dec - 23:46:54 10° NW 23:51:20 71° WSW 23:56:04 10° SSE night (unlit)
15 Dec - 01:32:19 10° W 01:33:08 10° WSW 01:33:57 10° WSW night (unlit)
15 Dec - 14:26:48 10° S 14:30:33 27° ESE 14:34:12 10° ENE daylight
15 Dec - 16:08:36 10° WSW 16:12:53 46° NW 16:17:04 10° NNE daylight
15 Dec - 17:54:18 10° NW 17:56:30 13° NNW 17:58:41 10° N visible
15 Dec - 21:22:32 10° NNW 21:25:30 17° NNE 21:28:34 10° ENE night (unlit)
15 Dec - 23:04:22 10° NNW 23:08:48 71° NE 23:13:31 10° SE night (unlit)
